Simultaneous Nadir Overpasses (SNOs) Predictions

Prediction of SNOs between GOES-14 and AQUA Satellite Orbit:

Table of predicted SNOs for the next 14.0 days since TLE Epoch: 4/11/2025
Index Date Time (GOES-14) GOES-14 Lat,Lon AQUA Lat,Lon Distance(km) Time Diff (sec)
1 04/14/2025 09:49:35 0.26,-108.31 0.29,-108.53 23.87 80
2 04/16/2025 21:51:39 -0.23,-108.33 -0.22,-108.33 1.12 80
3 04/19/2025 09:50:54 0.22,-108.33 0.14,-108.09 28.26 80
4 04/21/2025 21:50:15 -0.20,-108.33 -0.09,-107.87 53.56 80
5 04/22/2025 10:06:49 0.16,-108.33 1.08,-112.52 476.39 80
6 04/24/2025 09:49:26 0.18,-108.34 0.03,-107.61 82.97 80
7 04/24/2025 22:06:08 -0.13,-108.34 -1.02,-112.29 449.90 80
